Location: Brahman Valley
(40.6513°N, 111.8855°W)
Time: 08:11:15
(UTC+00:00)

Tiros 1 despin weight - Pass Details

Date: 17 May 2021
Orbit: 594 x 641 km, 48.2° (Epoch: 22 June)

Event Time Altitude Azimuth Distance (km) Brightness Sun altitude
Rises 07:19:40 0° 299° (WNW) 2,943 ? -29.9°
Reaches altitude 10° 07:22:01 10° 301° (WNW) 2,033 ? -29.9°
Enters shadow 07:24:09 27° 306° (NW) 1,246 ? -29.9°
Maximum altitude 07:26:42 76° 27° (NNE) 663 - -29.9°
Drops below altitude 10° 07:31:22 10° 114° (ESE) 2,017 - -29.9°
Sets 07:33:41 0° 116° (ESE) 2,918 - -29.9°
